Location: *
(43.9905°S, 176.4941°W)
Time: 14:38:01
(UTC+00:00)

Cosmos 2218 Rocket - Pass Details

Date: 08 December 2019
Orbit: 957 x 1005 km, 82.9° (Epoch: 25 January)

Event Time Altitude Azimuth Distance (km) Brightness Sun altitude
Rises 10:25:25 0° 186° (S) 3,742 8.5 -21.3°
Reaches altitude 10° 10:28:01 10° 183° (S) 2,780 7.5 -21.4°
Maximum altitude 10:34:22 67° 100° (E) 1,069 4.1 -21.7°
Enters shadow 10:36:37 41° 33° (NNE) 1,401 4.3 -21.8°
